Weather History for Greybull, WY

Change the Weather History Date:

Thursday, January 30, 2014

  Actual Average Record
Temperature  
Mean Temperature 18 °F 18 °F  
Max Temperature 28 °F 30 °F 51 °F (2012)
Min Temperature 7 °F 6 °F -12 °F (2002)
Degree Days  
Heating Degree Days 47 47  
Month to date heating degree days 1304 1446  
Since 1 July heating degree days 4419 4769  
Cooling Degree Days 0 0  
Month to date cooling degree days 0 0  
Year to date cooling degree days 0 0  
Moisture  
Dew Point 17 °F    
Average Humidity 81    
Maximum Humidity 100    
Minimum Humidity 62    
Precipitation  
Precipitation 0.01 in 0.01 in 0.15 in (2013)
Month to date precipitation 0.04 0.22  
Year to date precipitation 0.04 0.22  
Sea Level Pressure  
Sea Level Pressure 29.77 in    
Wind  
Wind Speed 11 mph (NW)    
Max Wind Speed 26 mph    
Max Gust Speed 33 mph    
Visibility 6 miles    
Events Fog , Snow    
T = Trace of Precipitation, MM = Missing Value Source: NWS Daily Summary

Daily Weather History Graph

Daily Weather History Graph

Search for Another Location

Airport:

Trip Planner

Search our weather history database for the weather conditions in past years. The results will help you decide how hot, cold, wet, or windy it might be!

Date:

Astronomy

Jan. 30, 2014 Rise Set
Actual Time 7:33 AM MST 5:18 PM MST
Civil Twilight 7:01 AM MST 5:49 PM MST
Nautical Twilight 6:26 AM MST 6:24 PM MST
Astronomical Twilight 5:52 AM MST 6:59 PM MST
Moon 6:59 AM MST (1/30) 5:36 PM MST (1/30)
Length of Visible Light 10h 48m
Length of Day
9h 45m
Waning Crescent, 0% of the Moon is Illuminated
Jan 30
Waning Crescent
Jan 30
New
Feb 6
First Quarter
Feb 14
Full
Feb 22
Last Quarter

Hourly Weather History & Observations

Time (MST) Temp. Windchill Dew Point Humidity Pressure Visibility Wind Dir Wind Speed Gust Speed Precip Events Conditions
12:39 AM 27.0 °F 20.5 °F 26.1 °F 96% 29.53 in 10.0 mi ESE 5.8 mph - N/A   Overcast
12:49 AM 28.4 °F 23.3 °F 26.6 °F 93% 29.53 in 10.0 mi ESE 4.6 mph - N/A   Overcast
12:53 AM 27.0 °F 20.5 °F 26.1 °F 96% 29.65 in 10.0 mi East 5.8 mph - N/A   Overcast
1:25 AM 26.1 °F 20.5 °F 25.0 °F 96% 29.53 in 10.0 mi South 4.6 mph - N/A   Overcast
1:53 AM 24.1 °F - 23.0 °F 96% 29.67 in 6.0 mi Calm Calm - N/A   Overcast
2:01 AM 25.0 °F 19.3 °F 23.0 °F 92% 29.54 in 1.5 mi SSE 4.6 mph - N/A   Overcast
2:04 AM 25.0 °F 19.3 °F 24.1 °F 96% 29.54 in 0.8 mi Variable 4.6 mph - N/A   Overcast
2:24 AM 25.0 °F 20.7 °F 25.0 °F 100% 29.56 in 1.5 mi East 3.5 mph - N/A   Overcast
2:26 AM 25.0 °F 20.7 °F 25.0 °F 100% 29.56 in 3.0 mi East 3.5 mph - N/A   Overcast
2:53 AM 25.0 °F - 25.0 °F 100% 29.68 in 5.0 mi Calm Calm - N/A   Overcast
3:47 AM 26.6 °F 19.1 °F 24.8 °F 93% 29.58 in 1.8 mi NNW 6.9 mph - N/A   Overcast
3:53 AM 26.1 °F 16.8 °F 26.1 °F 100% 29.70 in 0.8 mi NNW 9.2 mph - N/A   Mist
4:11 AM 27.0 °F 20.5 °F 27.0 °F 100% 29.58 in 1.2 mi North 5.8 mph - N/A   Overcast
4:18 AM 27.0 °F 23.0 °F 27.0 °F 100% 29.58 in 3.0 mi North 3.5 mph - N/A   Overcast
4:53 AM 28.0 °F 18.6 °F 27.0 °F 96% 29.70 in 7.0 mi WNW 10.4 mph - N/A   Overcast
5:15 AM 26.1 °F 14.5 °F 26.1 °F 100% 29.60 in 2.5 mi NW 13.8 mph - N/A   Overcast
5:22 AM 26.1 °F 14.5 °F 25.0 °F 96% 29.60 in 9.0 mi NW 13.8 mph - N/A   Overcast
5:43 AM 24.1 °F 10.6 °F 19.9 °F 84% 29.61 in 10.0 mi NW 17.3 mph - N/A   Overcast
5:53 AM 24.1 °F 11.5 °F 19.0 °F 81% 29.73 in 10.0 mi NW 15.0 mph - N/A   Overcast
6:00 AM 24.1 °F 10.1 °F 19.0 °F 81% 29.62 in 10.0 mi WNW 18.4 mph - N/A   Overcast
6:14 AM 23.0 °F 7.2 °F 17.1 °F 78% 29.63 in 10.0 mi NW 23.0 mph - N/A   Overcast
6:53 AM 21.9 °F 6.9 °F 16.0 °F 78% 29.75 in 10.0 mi NW 19.6 mph - N/A   Overcast
7:50 AM 19.4 °F 1.8 °F 12.2 °F 74% 29.66 in 10.0 mi NW 25.3 mph - N/A   Overcast
7:53 AM 19.9 °F 2.2 °F 12.9 °F 74% 29.79 in 10.0 mi NW 26.5 mph - N/A   Overcast
8:53 AM 19.9 °F 3.2 °F 10.9 °F 68% 29.82 in 10.0 mi NW 23.0 mph - N/A   Overcast
9:53 AM 19.9 °F 3.5 °F 10.9 °F 68% 29.86 in 10.0 mi NW 21.9 mph - N/A   Overcast
10:53 AM 21.9 °F 6.2 °F 10.9 °F 63% 29.87 in 10.0 mi NW 21.9 mph 27.6 mph N/A   Overcast
11:53 AM 21.9 °F 7.8 °F 10.9 °F 63% 29.90 in 10.0 mi NW 17.3 mph - N/A   Overcast
12:53 PM 21.9 °F 9.2 °F 10.0 °F 60% 29.88 in 10.0 mi NNW 13.8 mph - N/A   Overcast
1:37 PM 19.9 °F 7.3 °F 12.9 °F 74% 29.77 in 1.8 mi NNW 12.7 mph - 0.00 in Snow Light Snow
1:39 PM 19.9 °F 7.9 °F 14.0 °F 78% 29.77 in 1.0 mi NNW 11.5 mph - 0.00 in Snow Light Snow
1:46 PM 19.0 °F 5.0 °F 14.0 °F 81% 29.77 in 0.2 mi NW 15.0 mph - 0.00 in Snow Heavy Snow
1:53 PM 19.0 °F 6.1 °F 15.1 °F 85% 29.91 in 0.5 mi NW 12.7 mph - 0.00 in Fog , Snow Light Snow
1:58 PM 19.9 °F 7.9 °F 16.0 °F 85% 29.78 in 1.2 mi NW 11.5 mph - 0.00 in Snow Light Snow
2:12 PM 19.0 °F 6.1 °F 14.0 °F 81% 29.78 in 3.0 mi NW 12.7 mph - 0.00 in Snow Light Snow
2:21 PM 19.0 °F 7.5 °F 14.0 °F 81% 29.78 in 9.0 mi WNW 10.4 mph - 0.00 in   Overcast
2:53 PM 19.9 °F 6.2 °F 10.0 °F 65% 29.93 in 10.0 mi NW 15.0 mph - 0.00 in   Overcast
3:53 PM 19.0 °F 5.0 °F 12.0 °F 74% 29.94 in 4.0 mi NW 15.0 mph - 0.00 in Snow Light Snow
4:48 PM 17.6 °F 4.3 °F 10.4 °F 73% 29.83 in 2.0 mi NW 12.7 mph - 0.00 in Snow Light Snow
4:53 PM 18.0 °F 6.1 °F 10.9 °F 74% 29.97 in 1.8 mi NW 10.4 mph - 0.00 in Snow Light Snow
5:44 PM 16.0 °F 3.6 °F 12.0 °F 84% 29.85 in 2.5 mi NW 10.4 mph - 0.00 in Snow Light Snow
5:53 PM 16.0 °F 3.6 °F 12.0 °F 84% 30.00 in 2.0 mi NW 10.4 mph - 0.00 in Snow Light Snow
6:01 PM 16.0 °F 3.6 °F 12.0 °F 84% 29.85 in 3.0 mi NW 10.4 mph - 0.00 in Snow Light Snow
6:53 PM 16.0 °F 6.3 °F 12.0 °F 84% 30.01 in 4.0 mi WNW 6.9 mph - 0.00 in Snow Light Snow
7:32 PM 16.0 °F 6.3 °F 10.9 °F 81% 29.86 in 2.5 mi NW 6.9 mph - 0.00 in Snow Light Snow
7:44 PM 15.1 °F 6.4 °F 12.0 °F 88% 29.86 in 1.8 mi NW 5.8 mph - 0.00 in Snow Light Snow
7:53 PM 15.1 °F 5.2 °F 12.0 °F 88% 30.02 in 2.0 mi NW 6.9 mph - 0.00 in Snow Light Snow
8:11 PM 15.1 °F 9.4 °F 12.0 °F 88% 29.86 in 3.0 mi WNW 3.5 mph - 0.01 in Snow Light Snow
8:53 PM 14.0 °F - 10.9 °F 88% 30.01 in 10.0 mi Calm Calm - 0.01 in   Overcast
9:53 PM 12.9 °F 3.8 °F 9.0 °F 84% 30.01 in 10.0 mi WSW 5.8 mph - N/A   Mostly Cloudy
10:53 PM 8.1 °F - 5.0 °F 87% 30.02 in 10.0 mi Calm Calm - N/A   Scattered Clouds
11:53 PM 7.0 °F -1.7 °F 5.0 °F 92% 30.02 in 10.0 mi ESE 4.6 mph - N/A   Scattered Clouds